TimeEST,TemperatureF,Dew PointF,Humidity,Sea Level PressureIn,VisibilityMPH,Wind Direction,Wind SpeedMPH,Gust SpeedMPH,PrecipitationIn,Events,Conditions,WindDirDegrees,DateUTC
12:00 AM,36.5,28.2,72,30.12,-9999.0,Calm,Calm,-,N/A,,Unknown,0,2013-11-16 05:00:00
1:00 AM,38,27,53,30.11,,South,1.2,,,,,190,2013-11-16 06:00:00
1:00 AM,37.9,27.0,65,30.11,-9999.0,South,1.2,-,N/A,,Unknown,190,2013-11-16 06:00:00
2:00 AM,37.2,26.6,65,30.12,-9999.0,Calm,Calm,-,N/A,,Unknown,0,2013-11-16 07:00:00
3:00 AM,36.9,26.8,67,30.13,-9999.0,SSE,1.2,-,N/A,,Unknown,150,2013-11-16 08:00:00
4:00 AM,35.8,28.9,76,30.15,-9999.0,Calm,Calm,-,N/A,,Unknown,0,2013-11-16 09:00:00
5:00 AM,33.8,26.8,75,30.16,-9999.0,Calm,Calm,-,N/A,,Unknown,0,2013-11-16 10:00:00
6:00 AM,31.3,26.2,82,30.17,-9999.0,Calm,Calm,-,N/A,,Unknown,0,2013-11-16 11:00:00
7:00 AM,31,28,81,30.19,,Calm,Calm,,,,,,2013-11-16 12:00:00
7:00 AM,31.5,27.5,85,30.19,-9999.0,Calm,Calm,-,N/A,,Unknown,0,2013-11-16 12:00:00
8:00 AM,31.5,28.8,90,30.20,-9999.0,Calm,Calm,-,N/A,,Unknown,0,2013-11-16 13:00:00
9:00 AM,39.0,30.0,70,30.21,-9999.0,SE,2.3,-,N/A,,Unknown,140,2013-11-16 14:00:00
10:00 AM,45.0,30.2,56,30.23,-9999.0,Calm,Calm,-,N/A,,Unknown,0,2013-11-16 15:00:00
11:00 AM,52.9,28.2,39,30.23,-9999.0,SE,4.6,-,N/A,,Unknown,140,2013-11-16 16:00:00
12:00 PM,55.0,27.3,34,30.23,-9999.0,WNW,2.3,-,N/A,,Unknown,300,2013-11-16 17:00:00
1:00 PM,56,30,24,30.22,,SW,3.5,,,,,230,2013-11-16 18:00:00
1:00 PM,55.6,29.7,37,30.22,-9999.0,SW,3.5,-,N/A,,Unknown,230,2013-11-16 18:00:00
2:00 PM,55.8,30.6,38,30.21,-9999.0,West,3.5,-,N/A,,Unknown,270,2013-11-16 19:00:00
3:00 PM,55.2,30.9,40,30.21,-9999.0,West,3.5,-,N/A,,Unknown,280,2013-11-16 20:00:00
4:00 PM,50.0,30.7,48,30.21,-9999.0,SW,1.2,-,N/A,,Unknown,220,2013-11-16 21:00:00
5:00 PM,41.9,31.8,67,30.21,-9999.0,Calm,Calm,-,N/A,,Unknown,0,2013-11-16 22:00:00
6:00 PM,37.2,31.1,79,30.21,-9999.0,Calm,Calm,-,N/A,,Unknown,0,2013-11-16 23:00:00
7:00 PM,33,30,82,30.20,,Calm,Calm,,,,,,2013-11-17 00:00:00
7:00 PM,33.4,29.7,86,30.20,-9999.0,Calm,Calm,-,N/A,,Unknown,0,2013-11-17 00:00:00
8:00 PM,31.8,28.9,89,30.19,-9999.0,Calm,Calm,-,N/A,,Unknown,0,2013-11-17 01:00:00
9:00 PM,31.5,30.4,96,30.19,-9999.0,Calm,Calm,-,N/A,,Unknown,0,2013-11-17 02:00:00
10:00 PM,33.3,29.8,87,30.18,-9999.0,Calm,Calm,-,N/A,,Unknown,0,2013-11-17 03:00:00
11:00 PM,31.3,29.8,94,30.18,-9999.0,Calm,Calm,-,N/A,,Unknown,0,2013-11-17 04:00:00